Вернуться в каталог

CZ-4B DEB

АктивенLEO
NORAD 40530·DEBRIS·🇨🇳 China

Запущен Oct 25, 2013 с Jiuquan Satellite Launch Center

Loading…

Ближайшие Пролёты (ближайшие 24 часа)

TLE

СвежийSource: Space-Track

Эпоха: Sep 14, 2026, 05:50 UTC

1 40530U 13057C   26257.24333400  .00001626  00000-0  27685-3 0  9995
2 40530  75.0466  97.3022 0169421 305.7691  52.7827 14.60707846605374

Отслеживайте CZ-4B DEB в реальном времени с AllMySat

Download on the App Store